STARLINK-3899 (52457 NORAD) Tracking and Keplerian Element Data

This shows tracking and keplerian element data for the satellite.

Feedback or suggestion? Click here.




ElementValue
Catalog52457
NameSTARLINK-3899
Epoch Orbit130
Epoch Day167.08334491
Epoch Year2022
RAAN68.1102
Inclination53.2176
Eccentricity0.0001226
Argument of Perigee79.5844
Mean Anonmoly357.2779
Mean Motion15.39053529
Decay Rate-0.0070564
L11 52457U 22049G 22167.08334491 -.00705640 00000+0 -19420-1 0 9990
L22 52457 53.2176 68.1102 0001226 79.5844 357.2779 15.39053529 1301

Live tracking and technical data element details for STARLINK-3899 (NORAD 52457). STARLINK-3899 can be tracked NOW for your location showing map with azimuth and elevation plus other details from your city location.

Track the satellite on the map from your city or location and see movement details for azimuth, elevation, latitude, longitude, range, height, and movement on the map or in text.







IsCatalogInMostPopularTable: catalog: 52457, numindb: 1
Update: records affected: 1



GetName: 52457 STARLINK-3899

Hit Count: updated at: Mon, 27 Jun 2022 06:05:20 GMT